Regional Weather Roundup
Issued by NWS State College, PA

Home | Current Version | Previous Version | Graphics & Text | Print | Product List | Glossary Off
Versions: 1 2 3 4 5 6 7 8 9 10 11 12 13 14 15 16 17 18 19 20 21 22 23 24 25 26 27 28 29 30 31 32 33 34 35 36 37 38 39 40 41 42 43 44 45 46 47 48 49 50

000
ASUS41 KCTP 050803
RWRCTP

REGIONAL WEATHER ROUNDUP
NATIONAL WEATHER SERVICE STATE COLLEGE PA
400 AM EDT TUE MAY 05 2015

Note: "fair" indicates few or no clouds below 12,000 feet with no
significant weather and/or obstructions to visibility.

* = STATION THAT DOES NOT REPORT PRECIPITATION /E.G. RAIN...SNOW...ETC/
    THUNDER OR FOG.

PAZ002>004-007>009-013>016-020>023-029>032-050900-
WESTERN PENNSYLVANIA

CITY           SKY/WX    TMP DP  RH WIND       PRES   REMARKS
ERIE           PTCLDY    53  52  96 CALM      30.22R FOG
MEADVILLE      FOG       56  54  93 CALM      30.22S VSB 1/4
FRANKLIN*      CLOUDY    57  54  88 CALM      30.23F
NEW CASTLE     FOG       55  55 100 CALM      30.22S VSB 1/2
BEAVER COUNTY  NOT AVBL
BUTLER*          N/A     57  55  94 CALM      30.24S VSB 1/4
PITTSBURGH INT MOCLDY    61  58  90 CALM      30.22R
PITTSBURGH     CLOUDY    63  54  72 S3        30.21F
INDIANA*       CLOUDY    63  57  82 CALM      30.27R
LATROBE        MOCLDY    63  59  88 CALM      30.24S
WASHINGTON CO* MOCLDY    61  57  88 CALM      30.24S
$$

PAZ004>006-010>012-017>019-024>028-033>037-041-042-045-046-049>053-050900-
CENTRAL PENNSYLVANIA

CITY           SKY/WX    TMP DP  RH WIND       PRES   REMARKS
BRADFORD       CLOUDY    59  55  87 NW3       30.23S
DUBOIS         PTCLDY    58  55  90 CALM      30.23R FOG
CLEARFIELD     PTCLDY    61  55  81 CALM      30.23R
JOHNSTOWN      CLOUDY    61  53  75 SW3       30.24S
ALTOONA        CLOUDY    63  53  70 CALM      30.23S
STATE COLLEGE  PTCLDY    65  55  70 NW7       30.22S
WILLIAMSPORT   CLOUDY    66  53  63 W3        30.17R
SELINSGROVE    CLOUDY    61  57  87 CALM      30.18S
FT INDIANTOWN  CLOUDY    55  49  82 N1        30.18R
CAPITAL CITY   PTCLDY    67  51  56 CALM      30.17S
HARRISBURG     MOCLDY    60  51  72 E3        30.17R
YORK           CLEAR     57  51  80 CALM      30.18S
$$

PAZ038>040-043-044-047-048-054-055-060>062-067>071-050900-
EASTERN PENNSYLVANIA

CITY           SKY/WX    TMP DP  RH WIND       PRES   REMARKS
SCRANTON       CLOUDY    70  51  51 CALM      30.17S
MOUNT POCONO   PTCLDY    59  46  62 W5        30.19S
ALLENTOWN      CLEAR     55  48  77 N5        30.16S
QUAKERTOWN*    SUNNY     57  50  77 CALM      30.17S
READING        CLEAR     60  51  72 CALM      30.16S
LANCASTER      CLEAR     57  50  77 CALM      30.17S
COATESVILLE    SUNNY     63  54  72 W5        30.20R
POTTSTOWN      CLEAR     64  52  64 SW3       30.18S
BLUE BELL      CLEAR     63  52  67 CALM      30.17R
DOYLESTOWN     CLEAR     62  50  64 SW5       30.16S
WILLOW GROVE   NOT AVBL
NORTH PHILA    CLEAR     66  47  50 SW6       30.18S
PHILADELPHIA   PTCLDY    64  50  60 SW5       30.18S
$$



USA.gov is the U.S. government's official web portal to all federal, state and local government web resources and services.